Regional Weather Roundup
Issued by NWS

Home | Current Version | Previous Version | Text Only | Print | Product List | Glossary Off
Versions: 1 2 3 4 5 6 7 8 9 10 11 12 13 14 15 16 17 18 19 20 21 22 23 24 25 26 27 28 29 30 31 32 33 34 35 36 37 38 39 40 41 42 43 44 45 46 47 48 49 50

000
ASUS43 KOAX 300210
RWRNE

WEATHER ROUNDUP FOR NEBRASKA
NATIONAL WEATHER SERVICE OMAHA NE
900 PM CDT SUN MAY 29 2016

NOTES: SATELLITE DATA IS BEING USED TO AUGMENT CLOUD COVER ABOVE
       12000 FEET.
       "FAIR" INDICATES FEW OR NO CLOUDS BELOW 12,000 FEET WITH NO
       SIGNIFICANT WEATHER AND/OR OBSTRUCTIONS TO VISIBILITY.

  * THESE STATIONS DO NOT REPORT WEATHER SUCH AS RAIN...SNOW OR FOG.

NEZ001>004-019>022-054>056-300300-
NEBRASKA PANHANDLE

CITY           SKY/WX    TMP DP  RH WIND       PRES   REMARKS
SCOTTSBLUFF    CLOUDY    69  45  41 SE3       30.01R
ALLIANCE       CLOUDY    68  52  56 S5        29.99S
CHADRON        CLOUDY    70  52  52 NE6       29.96R
KIMBALL        CLOUDY    60  49  67 E8        30.07S
SIDNEY         TSTM      62  51  67 N16       30.05F
$$

NEZ057>060-069>072-079>082-300300-
SOUTHWEST NEBRASKA

CITY           SKY/WX    TMP DP  RH WIND       PRES   REMARKS
NORTH PLATTE   LGT RAIN  65  57  75 S18G25    30.02R
IMPERIAL       CLOUDY    62  53  72 S18       30.01R
LEXINGTON      CLOUDY    73  44  35 W12       30.00R
MCCOOK         CLOUDY    68  56  65 S9        30.03S
OGALLALA       CLOUDY    67  49  53 S17G24    30.01R
$$

NEZ005>010-023>029-035>040-094-300300-
NORTH CENTRAL NEBRASKA

CITY           SKY/WX    TMP DP  RH WIND       PRES   REMARKS
VALENTINE      CLEAR     73  54  51 E12       29.97R
AINSWORTH      CLOUDY    71  57  60 SE14      29.98S
BROKEN BOW     TSTM      67  55  65 SW9G26    30.01R
O`NEILL        CLEAR     72  58  61 E9        30.00S
ORD            CLOUDY    74  58  57 SE8       29.97R
THEDFORD       CLOUDY    75  57  52 S9        29.99R
$$

NEZ041-046>049-061>064-073>077-083>087-300300-
SOUTH CENTRAL NEBRASKA

CITY           SKY/WX    TMP DP  RH WIND       PRES   REMARKS
GRAND ISLAND   CLOUDY    69  57  65 SE15G24   30.02R
AURORA         CLOUDY    69  52  54 S16G25    30.02R
HASTINGS       CLOUDY    69  58  67 SE16G22   30.02R
HEBRON         CLOUDY    71  59  64 CALM      30.04R
HOLDREGE       CLOUDY    73  48  40 S10G16    30.02R
KEARNEY *      CLOUDY    72  57  60 SE9       30.02R
YORK           CLOUDY    66  55  68 SW13      30.01F
$$

NEZ011>018-030>034-042>045-300300-
NORTHEAST NEBRASKA

CITY           SKY/WX    TMP DP  RH WIND       PRES   REMARKS
NORFOLK        CLOUDY    73  58  59 E5        29.99S
ALBION         CLOUDY    73  56  56 SE6       29.99S
BLAIR          CLOUDY    76  62  60 E6        30.00S
FREMONT        CLOUDY    76  60  56 CALM      29.99S
TEKAMAH          N/A    N/A N/A N/A MISG      29.98R
WAYNE          CLEAR     69  59  70 E8        30.00F
$$

NEZ050>053-065>068-078-088>093-300300-
SOUTHEAST NEBRASKA

CITY           SKY/WX    TMP DP  RH WIND       PRES   REMARKS
LINCOLN        CLOUDY    77  61  57 S8        30.00R
OMAHA EPPLEY   CLOUDY    77  61  57 SE3       29.98S
BEATRICE       CLOUDY    73  57  57 S7        30.01R
FALLS CITY     CLOUDY    74  63  68 SW7       30.00S
NEBRASKA CITY  CLOUDY    76  57  50 SW9       30.01R
PLATTSMOUTH    CLOUDY    79  60  52 S5        30.00R
$$

NEZ044-045-051>053-067-300300-
OMAHA AREA

CITY           SKY/WX    TMP DP  RH WIND       PRES   REMARKS
OMAHA EPPLEY   CLOUDY    77  61  57 SE3       29.98S
BLAIR          CLOUDY    76  62  60 E6        30.00S
FREMONT        CLOUDY    76  60  56 CALM      29.99S
MILLARD        CLOUDY    74  62  66 CALM      29.99R
OFFUTT AFB     CLOUDY    73  65  75 NE2       29.98S
PLATTSMOUTH    CLOUDY    79  60  52 S5        30.00R
WAHOO          FAIR      77  62  60 CALM      29.98F
$$



USA.gov is the U.S. government's official web portal to all federal, state and local government web resources and services.